IZ3ZOD-13 Weather Reports


Display with metric or nautical units.
time (UTC)temp
F
wind
direction
speed
MPH
gust
MPH
rain 1hr
in
rain 24hr
in
rain mn
in
humidity
%
barometer
mb
20260903215203 74 208 0.0 1.0 0.00 0.00 0.00 71 1018.6
20260903214803 75 202 0.0 2.0 0.00 0.00 0.00 70 1018.3
20260903214403 75 202 0.0 2.0 0.00 0.00 0.00 69 1018.6
20260903214216 75 201 0.0 2.0 0.00 0.00 0.00 69 1018.5
20260903213815 74 0 0.0 0.0 0.00 0.00 0.00 68 1018.3
20260903213203 74 0 0.0 0.0 0.00 0.00 0.00 68 1018.4
20260903213014 73 0 0.0 0.0 0.00 0.00 0.00 69 1018.5
20260903212403 73 0 0.0 0.0 0.00 0.00 0.00 71 1018.3
20260903212003 73 0 0.0 0.0 0.00 0.00 0.00 70 1018.3
20260903211603 72 0 0.0 0.0 0.00 0.00 0.00 71 1018.4
20260903211203 72 0 0.0 0.0 0.00 0.00 0.00 71 1018.5
20260903210803 72 0 0.0 0.0 0.00 0.00 0.00 71 1018.3
20260903210403 72 0 0.0 0.0 0.00 0.00 0.00 73 1018.4
20260903210003 72 0 0.0 0.0 0.00 0.00 0.00 73 1018.5
20260903205603 73 0 0.0 0.0 0.00 0.00 0.00 71 1018.4
20260903205203 73 0 0.0 0.0 0.00 0.00 0.00 70 1018.4
20260903204803 74 0 0.0 0.0 0.00 0.00 0.00 68 1018.6
20260903204403 74 0 0.0 0.0 0.00 0.00 0.00 69 1018.4
20260903204004 74 0 0.0 0.0 0.00 0.00 0.00 65 1018.4
20260903203603 74 0 0.0 0.0 0.00 0.00 0.00 65 1018.6
20260903203203 74 0 0.0 0.0 0.00 0.00 0.00 66 1018.5
20260903202803 75 0 0.0 0.0 0.00 0.00 0.00 66 1018.4
20260903202403 75 0 0.0 0.0 0.00 0.00 0.00 66 1018.5
20260903202003 76 0 0.0 0.0 0.00 0.00 0.00 65 1018.3
20260903201603 76 0 0.0 0.0 0.00 0.00 0.00 61 1018.3
20260903201417 76 0 0.0 0.0 0.00 0.00 0.00 61 1018.4
20260903200803 76 0 0.0 0.0 0.00 0.00 0.00 60 1018.1
20260903200403 76 0 0.0 0.0 0.00 0.00 0.00 63 1018.3
20260903200003 76 0 0.0 0.0 0.00 0.00 0.00 59 1018.2
20260903195603 76 0 0.0 0.0 0.00 0.00 0.00 59 1018.3
20260903195203 77 0 0.0 0.0 0.00 0.00 0.00 58 1018.2
20260903194803 77 0 0.0 0.0 0.00 0.00 0.00 58 1018.2
20260903194403 77 0 0.0 0.0 0.00 0.00 0.00 59 1018.3
20260903194003 77 0 0.0 0.0 0.00 0.00 0.00 58 1018.4
20260903193603 77 0 0.0 0.0 0.00 0.00 0.00 58 1018.1
20260903193416 77 0 0.0 0.0 0.00 0.00 0.00 58 1018.3
20260903192803 77 163 0.0 1.0 0.00 0.00 0.00 59 1018.2
20260903192403 77 163 1.0 1.0 0.00 0.00 0.00 59 1018.1
20260903192214 77 163 1.0 2.0 0.00 0.00 0.00 58 1018.0
20260903191603 78 159 2.0 2.0 0.00 0.00 0.00 58 1018.0
20260903191413 78 158 2.0 2.0 0.00 0.00 0.00 58 1018.1
20260903190803 78 158 2.0 3.0 0.00 0.00 0.00 56 1017.9
20260903190403 79 157 2.0 3.0 0.00 0.00 0.00 57 1018.1
20260903190003 79 157 1.0 2.0 0.00 0.00 0.00 56 1017.9
20260903185815 79 158 1.0 2.0 0.00 0.00 0.00 56 1017.9
20260903185415 78 160 1.0 3.0 0.00 0.00 0.00 57 1017.9
20260903184803 79 163 1.0 3.0 0.00 0.00 0.00 58 1018.1
20260903184613 78 166 1.0 3.0 0.00 0.00 0.00 57 1018.1
20260903184003 78 173 0.0 2.0 0.00 0.00 0.00 58 1017.9
20260903183817 78 169 0.0 2.0 0.00 0.00 0.00 59 1017.9
20260903183203 78 167 0.0 1.0 0.00 0.00 0.00 58 1017.9
20260903183016 79 167 0.0 1.0 0.00 0.00 0.00 59 1017.8
20260903182403 79 163 1.0 3.0 0.00 0.00 0.00 58 1017.7
20260903182003 79 166 1.0 3.0 0.00 0.00 0.00 57 1017.8
20260903181603 79 168 1.0 3.0 0.00 0.00 0.00 57 1017.8
20260903181204 79 172 0.0 2.0 0.00 0.00 0.00 58 1017.7
20260903180803 79 171 0.0 2.0 0.00 0.00 0.00 57 1017.8
20260903180403 79 170 0.0 1.0 0.00 0.00 0.00 58 1017.6
20260903180004 80 162 0.0 2.0 0.00 0.00 0.00 56 1017.5
20260903175603 80 159 1.0 2.0 0.00 0.00 0.00 55 1017.7
20260903175203 80 156 0.0 2.0 0.00 0.00 0.00 55 1017.6
20260903174803 81 149 0.0 1.0 0.00 0.00 0.00 54 1017.8
20260903174403 81 163 1.0 2.0 0.00 0.00 0.00 53 1017.6
20260903174003 81 163 1.0 2.0 0.00 0.00 0.00 53 1017.6
20260903173813 81 165 0.0 2.0 0.00 0.00 0.00 53 1017.5
20260903173203 82 155 0.0 1.0 0.00 0.00 0.00 53 1017.5
20260903172803 82 160 1.0 2.0 0.00 0.00 0.00 52 1017.6
20260903172403 83 155 1.0 2.0 0.00 0.00 0.00 51 1017.6
20260903172003 83 154 1.0 2.0 0.00 0.00 0.00 50 1017.9
20260903171603 84 99 0.0 2.0 0.00 0.00 0.00 50 1017.8
20260903171203 84 80 0.0 2.0 0.00 0.00 0.00 49 1017.7
20260903170803 84 86 1.0 2.0 0.00 0.00 0.00 47 1017.7
20260903170403 85 90 1.0 2.0 0.00 0.00 0.00 48 1017.7
20260903170003 85 89 2.0 3.0 0.00 0.00 0.00 48 1017.5
20260903165603 85 88 2.0 4.0 0.00 0.00 0.00 47 1017.7
20260903165416 85 88 2.0 4.0 0.00 0.00 0.00 48 1017.7
20260903164803 85 95 2.0 4.0 0.00 0.00 0.00 47 1017.6
20260903164403 86 94 2.0 4.0 0.00 0.00 0.00 46 1017.9
20260903164214 86 93 2.0 4.0 0.00 0.00 0.00 46 1017.7
20260903163603 86 86 2.0 4.0 0.00 0.00 0.00 45 1017.8
20260903163203 87 84 2.0 6.0 0.00 0.00 0.00 45 1017.6
20260903162804 87 85 2.0 6.0 0.00 0.00 0.00 46 1017.7
20260903162617 86 87 2.0 6.0 0.00 0.00 0.00 46 1017.6
20260903162216 86 84 1.0 3.0 0.00 0.00 0.00 46 1017.6
20260903161603 87 73 0.0 2.0 0.00 0.00 0.00 45 1017.6
20260903161203 87 75 0.0 1.0 0.00 0.00 0.00 44 1017.4
20260903160803 88 124 1.0 6.0 0.00 0.00 0.00 43 1017.3
20260903160403 88 141 3.0 8.0 0.00 0.00 0.00 42 1017.4
20260903160213 88 143 3.0 8.0 0.00 0.00 0.00 42 1017.3
20260903155603 89 145 3.0 6.0 0.00 0.00 0.00 41 1017.6
20260903155203 89 146 2.0 6.0 0.00 0.00 0.00 42 1017.5
20260903155016 89 151 2.0 6.0 0.00 0.00 0.00 42 1017.3
20260903154403 89 152 3.0 6.0 0.00 0.00 0.00 41 1017.5
20260903154003 89 158 3.0 7.0 0.00 0.00 0.00 41 1017.2
20260903153603 89 161 3.0 7.0 0.00 0.00 0.00 41 1017.2
20260903153203 89 160 4.0 8.0 0.00 0.00 0.00 41 1017.5
20260903152803 89 158 4.0 8.0 0.00 0.00 0.00 41 1017.3
20260903152403 89 156 3.0 7.0 0.00 0.00 0.00 41 1017.2
20260903152003 90 143 2.0 6.0 0.00 0.00 0.00 41 1017.3
20260903151603 89 152 3.0 6.0 0.00 0.00 0.00 43 1017.0
20260903151203 89 152 3.0 6.0 0.00 0.00 0.00 43 1017.3
20260903150803 88 153 3.0 5.0 0.00 0.00 0.00 44 1017.3
20260903150403 89 146 3.0 5.0 0.00 0.00 0.00 42 1017.3
20260903150003 89 128 3.0 8.0 0.00 0.00 0.00 41 1017.4
20260903145603 89 103 3.0 8.0 0.00 0.00 0.00 42 1017.5
20260903145417 90 101 2.0 8.0 0.00 0.00 0.00 42 1017.5
20260903144803 90 103 3.0 7.0 0.00 0.00 0.00 42 1017.7
20260903144616 90 102 2.0 7.0 0.00 0.00 0.00 41 1017.7
20260903144003 90 113 2.0 7.0 0.00 0.00 0.00 42 1017.8
20260903143603 90 102 2.0 4.0 0.00 0.00 0.00 41 1017.8
20260903143203 90 96 3.0 4.0 0.00 0.00 0.00 40 1017.8
20260903142803 89 85 3.0 5.0 0.00 0.00 0.00 42 1018.0
20260903142403 89 76 3.0 8.0 0.00 0.00 0.00 44 1018.0
20260903142003 90 70 3.0 8.0 0.00 0.00 0.00 41 1018.0
20260903141603 90 83 3.0 6.0 0.00 0.00 0.00 40 1018.0
20260903141203 90 105 2.0 6.0 0.00 0.00 0.00 43 1018.2
20260903140803 90 106 2.0 7.0 0.00 0.00 0.00 41 1018.2
20260903140403 90 91 3.0 7.0 0.00 0.00 0.00 42 1018.1
20260903140003 90 82 4.0 7.0 0.00 0.00 0.00 42 1018.0
20260903135603 90 91 3.0 8.0 0.00 0.00 0.00 42 1018.1
20260903135203 91 95 3.0 8.0 0.00 0.00 0.00 41 1018.0
20260903134803 91 116 2.0 8.0 0.00 0.00 0.00 40 1018.1
20260903134617 91 107 2.0 5.0 0.00 0.00 0.00 40 1018.1
20260903134003 90 109 3.0 5.0 0.00 0.00 0.00 40 1018.3
20260903133603 91 124 3.0 6.0 0.00 0.00 0.00 40 1018.1
20260903133203 91 121 2.0 6.0 0.00 0.00 0.00 40 1018.1
20260903132803 91 120 2.0 7.0 0.00 0.00 0.00 40 1018.1
20260903132613 91 143 2.0 7.0 0.00 0.00 0.00 39 1018.1
20260903132003 92 163 2.0 6.0 0.00 0.00 0.00 39 1018.1
20260903131603 92 148 2.0 6.0 0.00 0.00 0.00 39 1018.1
20260903131417 92 138 2.0 6.0 0.00 0.00 0.00 40 1018.1
20260903131016 92 99 2.0 4.0 0.00 0.00 0.00 39 1018.3
20260903130403 91 83 2.0 6.0 0.00 0.00 0.00 41 1018.2
20260903130004 92 85 2.0 6.0 0.00 0.00 0.00 38 1018.4
20260903125603 91 98 2.0 4.0 0.00 0.00 0.00 39 1018.2
20260903125203 92 175 2.0 4.0 0.00 0.00 0.00 39 1018.5
20260903124803 92 228 2.0 5.0 0.00 0.00 0.00 38 1018.4
20260903124403 91 214 3.0 6.0 0.00 0.00 0.00 43 1018.6
20260903124217 90 210 2.0 6.0 0.00 0.00 0.00 43 1018.5
20260903123603 92 239 1.0 4.0 0.00 0.00 0.00 40 1018.6
20260903123203 91 309 2.0 3.0 0.00 0.00 0.00 42 1018.7
20260903122803 90 355 3.0 4.0 0.00 0.00 0.00 41 1018.7
20260903122403 89 27 3.0 4.0 0.00 0.00 0.00 42 1018.8
20260903122003 90 71 3.0 6.0 0.00 0.00 0.00 41 1018.7
20260903121603 90 100 3.0 6.0 0.00 0.00 0.00 40 1018.8
20260903121203 90 79 3.0 4.0 0.00 0.00 0.00 42 1018.7
20260903121017 90 70 3.0 6.0 0.00 0.00 0.00 41 1018.9
20260903120403 90 85 2.0 6.0 0.00 0.00 0.00 40 1018.7
20260903120003 91 143 2.0 4.0 0.00 0.00 0.00 42 1018.6
20260903115603 90 162 2.0 4.0 0.00 0.00 0.00 42 1018.5
20260903115414 90 152 2.0 4.0 0.00 0.00 0.00 40 1018.7
20260903114803 90 151 2.0 5.0 0.00 0.00 0.00 40 1018.8
20260903114403 90 160 3.0 8.0 0.00 0.00 0.00 42 1018.7
20260903114003 90 175 3.0 8.0 0.00 0.00 0.00 42 1018.7
20260903113603 91 197 2.0 6.0 0.00 0.00 0.00 41 1018.7
20260903113203 91 194 2.0 6.0 0.00 0.00 0.00 41 1018.9
20260903112803 90 165 2.0 4.0 0.00 0.00 0.00 42 1019.1
20260903112403 89 160 2.0 4.0 0.00 0.00 0.00 41 1019.1
20260903112003 90 120 2.0 6.0 0.00 0.00 0.00 42 1019.1
20260903111603 90 104 3.0 6.0 0.00 0.00 0.00 41 1019.0
20260903111203 90 90 2.0 6.0 0.00 0.00 0.00 40 1018.9
20260903110803 90 208 1.0 4.0 0.00 0.00 0.00 41 1019.1
20260903110617 89 268 1.0 4.0 0.00 0.00 0.00 40 1019.1
20260903110003 89 18 2.0 5.0 0.00 0.00 0.00 41 1018.9
20260903105603 88 38 3.0 6.0 0.00 0.00 0.00 44 1019.1
20260903105415 88 44 3.0 6.0 0.00 0.00 0.00 44 1019.3
20260903104803 88 68 4.0 8.0 0.00 0.00 0.00 44 1019.0
20260903104403 88 61 3.0 8.0 0.00 0.00 0.00 43 1019.3
20260903104213 88 55 3.0 8.0 0.00 0.00 0.00 42 1019.4
20260903103812 89 22 3.0 8.0 0.00 0.00 0.00 41 1019.1
20260903103203 88 17 3.0 7.0 0.00 0.00 0.00 45 1019.3
20260903102803 89 5 3.0 7.0 0.00 0.00 0.00 44 1019.3
20260903102615 88 7 2.0 6.0 0.00 0.00 0.00 45 1019.3
20260903102003 88 44 3.0 6.0 0.00 0.00 0.00 44 1019.6
20260903101603 88 60 3.0 5.0 0.00 0.00 0.00 43 1019.6
20260903101203 88 53 3.0 6.0 0.00 0.00 0.00 47 1019.5
20260903100803 87 43 3.0 6.0 0.00 0.00 0.00 45 1019.6
20260903100403 87 42 2.0 4.0 0.00 0.00 0.00 46 1019.6